Printer-friendly version

IAU Minor Planet Center

Minor Planet Center

MPEC 2006-L22 : S/2003 J 14

The following Minor Planet Electronic Circular may be linked-to from your own Web pages, but must not otherwise be redistributed electronically.


Read MPEC 2006-L21 Read MPEC 2006-L23


M.P.E.C. 2006-L22                                Issued 2006 June 3, 03:11 UT

     The Minor Planet Electronic Circulars contain information on unusual
         minor planets and routine data on comets.  They are published
   on behalf of Commission 20 of the International Astronomical Union by the
          Minor Planet Center, Smithsonian Astrophysical Observatory,
                          Cambridge, MA 02138, U.S.A.

                  Supported in part by the Brinson Foundation
                  Supported in part by the TABASGO Foundation
             Prepared using the Tamkin Foundation Computer Network

                              MPC@CFA.HARVARD.EDU
          URL http://cfa-www.harvard.edu/iau/mpc.html  ISSN 1523-6714

                                  S/2003 J 14

                           Revision to MPEC 2003-G10

Additional Observations:
    SK03J140  C2006 04 28.21308 14 43 33.84 -14 51 15.9          21.9 R EL022807
    SK03J140  C2006 04 28.28102 14 43 31.64 -14 51 09.6                 EL022807
    SK03J140  C2006 05 02.27860 14 41 25.05 -14 44 56.6          23.5 R EL022695
    SK03J140  C2006 05 02.31189 14 41 23.93 -14 44 53.1          23.0 R EL022695
    SK03J140  C2006 05 02.35761 14 41 22.44 -14 44 49.0          22.9 R EL022695

Observer details:
695 Kitt Peak.  Observer D. E. Trilling.  Measurer L. H. Wasserman.  4-m
    reflector + CCD.
807 Cerro Tololo.  Observers M. W. Buie, R. L. Millis, S. D. Kern.  4-m
    reflector + CCD.

Orbital elements:
S/2003 J 14
Epoch 2006 Mar. 6.0 TT = JDT 2453800.5                  MPC
M   6.25460              (2000.0)            P               Q
n   0.46390525     Peri.  153.57880     -0.95142087     -0.24235499
a   0.1627369      Node   343.71570     -0.17779995     +0.93601114
e   0.1951191      Incl.  137.37156     +0.25136726     -0.25523952
P   2.12           H   16.6           P/d   776.02
Residuals in seconds of arc
030208 568  0.1+  0.4-    030227 568  0.0   0.1+    060428 807  0.1-  0.1+
030208 568  0.1-  0.2+    030305 568  0.4+  0.3-    060502 695  0.4+  0.2-
030226 568  0.0   0.1+    030305 568  0.4-  0.0     060502 695  0.1-  0.1+
030226 568  0.1-  0.1+    030402 568  0.1-  0.2-    060502 695  0.2-  0.1-
030227 568  0.1+  0.2+    030402 568  0.0   0.1+
030227 568  0.1+  0.1+    060428 807  0.0   0.1+

Ephemeris:
    S/2003 J 14                                                  q = 0.1310
Date    TT    R. A. (2000) Decl.     Delta     r_J   dR.A. ("/m)  dDecl.m1"/')
2006 05 25    14 30.08   -14 11.0    4.478    0.143  6556-/7.51-   576-/  9.6-
2006 06 04    14 26.10   -13 59.9    4.537    0.146  6554-/7.50-   921-/ 15.3-
2006 06 14    14 23.09   -13 52.7    4.620    0.148  6475-/7.41-  1244-/ 20.7-
2006 06 24    14 21.20   -13 50.3    4.722    0.151  6326-/7.24-  1543-/ 25.7-
2006 07 04    14 20.53   -13 53.2    4.841    0.153  6113-/7.00-  1819-/ 30.3-
2006 07 14    14 21.09   -14 01.5    4.971    0.156  5843-/6.69-  2073-/ 34.5-
2006 07 24    14 22.86   -14 15.0    5.108    0.158  5521-/6.33-  2306-/ 38.4-
2006 08 03    14 25.79   -14 33.5    5.249    0.161  5153-/5.92-  2522-/ 42.0-
2006 08 13    14 29.80   -14 56.3    5.390    0.164  4743-/5.45-  2722-/ 45.4-
2006 08 23    14 34.81   -15 22.9    5.528    0.166  4297-/4.95-  2908-/ 48.5-
2006 09 02    14 40.71   -15 52.6    5.660    0.169  3818-/4.41-  3081-/ 51.3-
2006 09 12    14 47.43   -16 24.7    5.782    0.171  3310-/3.83-  3240-/ 54.0-
2006 09 22    14 54.86   -16 58.5    5.893    0.173  2778-/3.23-  3387-/ 56.5-
2006 10 02    15 02.91   -17 33.4    5.991    0.176  2225-/2.59-  3520-/ 58.7-
2006 10 12    15 11.50   -18 08.6    6.074    0.178  1654-/1.93-  3638-/ 60.6-

Brian G. Marsden             (C) Copyright 2006 MPC           M.P.E.C. 2006-L22

Read MPEC 2006-L21 Read MPEC 2006-L23


Our Web policy. Index to the CBAT/MPC/ICQ pages.


Valid HTML 4.01!